When you browse on this site, cookies collect data to enhance your experience and personalize the content and advertising you see.
Visit our Privacy Policy to learn more. By continuing to use the site, you agree to this use of cookies and data.
  • In Spain
  • List of Countries
  • For 7 days
  • Water Temperature
  • Weather Map
  • Weather Widgets
  • user-avatar
    Login

    Hourly Weather Monte Patria

    Today, 24 January, Friday

    Time Temperature Precipitation Wind Pressure Humidity
    00:00 +19°C° 0 mm 0 mps 721 mmHg 78%
    01:00 +21°C° 0 mm 1 mps 721 mmHg 79%
    02:00 +19°C° 0 mm 0 mps 721 mmHg 78%
    03:00 +19°C° 0 mm 0 mps 721 mmHg 77%
    04:00 +19°C° 0 mm 0 mps 721 mmHg 76%
    05:00 +20°C° 0 mm 0 mps 721 mmHg 71%
    06:00 +24°C° 0 mm 1 mps 722 mmHg 67%
    07:00 +25°C° 0 mm 1 mps 723 mmHg 61%
    08:00 +27°C° 0 mm 2 mps 723 mmHg 54%
    09:00 +29°C° 0 mm 2 mps 723 mmHg 47%
    10:00 +30°C° 0 mm 3 mps 722 mmHg 40%
    11:00 +33°C° 0 mm 4 mps 722 mmHg 38%
    12:00 +34°C° 0 mm 5 mps 722 mmHg 36%
    13:00 +35°C° 0 mm 6 mps 722 mmHg 33%
    14:00 +34°C° 0 mm 5 mps 722 mmHg 35%
    15:00 +33°C° 0 mm 5 mps 722 mmHg 36%
    16:00 +33°C° 0 mm 5 mps 722 mmHg 38%
    17:00 +29°C° 0 mm 4 mps 722 mmHg 44%
    18:00 +27°C° 0 mm 2 mps 722 mmHg 51%
    19:00 +25°C° 0 mm 1 mps 722 mmHg 57%
    20:00 +24°C° 0 mm 1 mps 722 mmHg 62%
    21:00 +21°C° 0 mm 0 mps 722 mmHg 68%
    22:00 +20°C° 0 mm 0 mps 722 mmHg 73%
    23:00 +20°C° 0 mm 0 mps 721 mmHg 73%

    Tomorrow, 25 January, Saturday

    Time Temperature Precipitation Wind Pressure Humidity
    00:00 +19°C° 0 mm 0 mps 721 mmHg 74%
    01:00 +19°C° 0 mm 0 mps 721 mmHg 75%
    02:00 +19°C° 0 mm 0 mps 721 mmHg 76%
    03:00 +19°C° 0 mm 0 mps 721 mmHg 77%
    04:00 +18°C° 0 mm 0 mps 721 mmHg 79%
    05:00 +20°C° 0 mm 0 mps 721 mmHg 70%
    06:00 +25°C° 0 mm 1 mps 722 mmHg 61%
    07:00 +27°C° 0 mm 1 mps 722 mmHg 53%
    08:00 +28°C° 0 mm 2 mps 723 mmHg 48%
    09:00 +30°C° 0 mm 3 mps 723 mmHg 43%
    10:00 +33°C° 0 mm 3 mps 723 mmHg 38%
    11:00 +33°C° 0 mm 4 mps 723 mmHg 37%
    12:00 +34°C° 0 mm 5 mps 723 mmHg 35%
    13:00 +34°C° 0 mm 5 mps 723 mmHg 34%
    14:00 +34°C° 0 mm 5 mps 722 mmHg 35%
    15:00 +33°C° 0 mm 5 mps 722 mmHg 36%
    16:00 +32°C° 0 mm 4 mps 722 mmHg 38%
    17:00 +29°C° 0 mm 3 mps 722 mmHg 44%
    18:00 +27°C° 0 mm 2 mps 722 mmHg 50%
    19:00 +25°C° 0 mm 1 mps 722 mmHg 56%
    20:00 +24°C° 0 mm 1 mps 722 mmHg 60%
    21:00 +21°C° 0 mm 0 mps 723 mmHg 64%
    22:00 +20°C° 0 mm 0 mps 723 mmHg 68%
    23:00 +19°C° 0 mm 0 mps 722 mmHg 69%

    Day after tomorrow, 26 January, Sunday

    Time Temperature Precipitation Wind Pressure Humidity
    00:00 +19°C° 0 mm 0 mps 722 mmHg 70%
    01:00 +19°C° 0 mm 0 mps 722 mmHg 71%
    02:00 +19°C° 0 mm 0 mps 722 mmHg 71%
    03:00 +19°C° 0 mm 0 mps 722 mmHg 70%
    04:00 +19°C° 0 mm 0 mps 722 mmHg 70%
    05:00 +21°C° 0 mm 0 mps 723 mmHg 64%
    06:00 +24°C° 0 mm 1 mps 723 mmHg 58%
    07:00 +26°C° 0 mm 1 mps 723 mmHg 52%
    08:00 +28°C° 0 mm 2 mps 723 mmHg 46%
    09:00 +30°C° 0 mm 2 mps 724 mmHg 40%
    10:00 +33°C° 0 mm 3 mps 724 mmHg 34%
    11:00 +34°C° 0 mm 4 mps 723 mmHg 31%
    12:00 +35°C° 0 mm 5 mps 723 mmHg 28%
    13:00 +35°C° 0 mm 5 mps 723 mmHg 25%
    14:00 +35°C° 0 mm 5 mps 723 mmHg 25%
    15:00 +34°C° 0 mm 5 mps 723 mmHg 25%
    16:00 +34°C° 0 mm 4 mps 722 mmHg 25%
    17:00 +30°C° 0 mm 3 mps 722 mmHg 30%
    18:00 +28°C° 0 mm 2 mps 722 mmHg 34%
    19:00 +26°C° 0 mm 1 mps 722 mmHg 38%
    20:00 +25°C° 0 mm 1 mps 722 mmHg 41%
    21:00 +24°C° 0 mm 1 mps 722 mmHg 45%
    22:00 +21°C° 0 mm 0 mps 722 mmHg 48%
    23:00 +20°C° 0 mm 0 mps 722 mmHg 50%

    27 January, Monday

    Time Temperature Precipitation Wind Pressure Humidity
    00:00 +20°C° 0 mm 0 mps 721 mmHg 53%
    01:00 +19°C° 0 mm 0 mps 721 mmHg 55%
    02:00 +18°C° 0 mm 0 mps 721 mmHg 58%
    03:00 +18°C° 0 mm 0 mps 721 mmHg 61%
    04:00 +17°C° 0 mm 0 mps 721 mmHg 64%
    05:00 +20°C° 0 mm 0 mps 721 mmHg 55%
    06:00 +24°C° 0 mm 1 mps 721 mmHg 47%
    07:00 +26°C° 0 mm 1 mps 722 mmHg 39%
    08:00 +28°C° 0 mm 2 mps 722 mmHg 35%
    09:00 +30°C° 0 mm 2 mps 722 mmHg 32%
    10:00 +33°C° 0 mm 3 mps 722 mmHg 28%
    11:00 +34°C° 0 mm 4 mps 722 mmHg 26%
    12:00 +35°C° 0 mm 5 mps 722 mmHg 25%
    13:00 +35°C° 0 mm 6 mps 722 mmHg 24%
    14:00 +35°C° 0 mm 5 mps 722 mmHg 26%
    15:00 +34°C° 0 mm 5 mps 721 mmHg 27%
    16:00 +33°C° 0 mm 4 mps 721 mmHg 28%
    17:00 +30°C° 0 mm 3 mps 721 mmHg 36%
    18:00 +27°C° 0 mm 2 mps 721 mmHg 44%
    19:00 +24°C° 0 mm 1 mps 720 mmHg 52%
    20:00 +23°C° 0 mm 1 mps 720 mmHg 57%
    21:00 +20°C° 0 mm 0 mps 720 mmHg 62%
    22:00 +19°C° 0 mm 0 mps 720 mmHg 66%
    23:00 +18°C° 0 mm 0 mps 720 mmHg 68%

    28 January, Tuesday

    Time Temperature Precipitation Wind Pressure Humidity
    00:00 +18°C° 0 mm 0 mps 720 mmHg 70%
    01:00 +18°C° 0 mm 0 mps 719 mmHg 71%
    02:00 +17°C° 0 mm 0 mps 719 mmHg 74%
    03:00 +17°C° 0 mm 0 mps 719 mmHg 76%
    04:00 +17°C° 0 mm 0 mps 719 mmHg 78%
    05:00 +19°C° 0 mm 0 mps 720 mmHg 69%
    06:00 +23°C° 0 mm 1 mps 720 mmHg 60%
    07:00 +25°C° 0 mm 1 mps 721 mmHg 51%
    08:00 +27°C° 0 mm 2 mps 721 mmHg 47%
    09:00 +28°C° 0 mm 3 mps 722 mmHg 42%
    10:00 +30°C° 0 mm 3 mps 722 mmHg 38%
    11:00 +32°C° 0 mm 4 mps 722 mmHg 36%
    12:00 +33°C° 0 mm 4 mps 722 mmHg 33%
    13:00 +34°C° 0 mm 5 mps 721 mmHg 31%
    14:00 +33°C° 0 mm 5 mps 721 mmHg 32%
    15:00 +32°C° 0 mm 4 mps 721 mmHg 34%
    16:00 +32°C° 0 mm 4 mps 721 mmHg 35%
    17:00 +28°C° 0 mm 3 mps 720 mmHg 43%
    18:00 +26°C° 0 mm 2 mps 720 mmHg 51%
    19:00 +23°C° 0 mm 1 mps 720 mmHg 58%
    20:00 +22°C° 0 mm 1 mps 720 mmHg 63%
    21:00 +19°C° 0 mm 0 mps 720 mmHg 69%
    22:00 +17°C° 0 mm 0 mps 720 mmHg 74%
    23:00 +17°C° 0 mm 0 mps 720 mmHg 76%

    29 January, Wednesday

    Time Temperature Precipitation Wind Pressure Humidity
    00:00 +17°C° 0 mm 0 mps 719 mmHg 79%
    01:00 +16°C° 0 mm 0 mps 719 mmHg 81%
    02:00 +16°C° 0 mm 0 mps 719 mmHg 83%
    03:00 +15°C° 0 mm 0 mps 719 mmHg 85%
    04:00 +15°C° 0 mm 0 mps 720 mmHg 87%
    05:00 +17°C° 0 mm 0 mps 720 mmHg 78%
    06:00 +21°C° 0 mm 1 mps 720 mmHg 68%
    07:00 +23°C° 0 mm 1 mps 721 mmHg 59%
    08:00 +25°C° 0 mm 2 mps 721 mmHg 54%
    09:00 +26°C° 0 mm 3 mps 721 mmHg 49%
    10:00 +28°C° 0 mm 4 mps 721 mmHg 44%
    11:00 +29°C° 0 mm 4 mps 721 mmHg 40%
    12:00 +30°C° 0 mm 4 mps 721 mmHg 36%
    13:00 +32°C° 0 mm 5 mps 721 mmHg 31%
    14:00 +32°C° 0 mm 4 mps 721 mmHg 32%
    15:00 +30°C° 0 mm 4 mps 721 mmHg 32%
    16:00 +30°C° 0 mm 4 mps 721 mmHg 33%
    17:00 +27°C° 0 mm 3 mps 721 mmHg 40%
    18:00 +25°C° 0 mm 2 mps 721 mmHg 48%
    19:00 +22°C° 0 mm 1 mps 721 mmHg 56%
    20:00 +21°C° 0 mm 1 mps 720 mmHg 60%
    21:00 +18°C° 0 mm 0 mps 720 mmHg 65%
    22:00 +17°C° 0 mm 0 mps 720 mmHg 69%
    23:00 +17°C° 0 mm 0 mps 720 mmHg 71%
    Show more